Walhalla, ND

7:08 AM CST on December 18, 2017 (GMT -0600)
Walhalla

Weather History for K96D - December, 2012

Change the Weather History Date:

Sunday, December 30, 2012

  Actual Average (KGAF) Record (KGAF)
Temperature  
Mean Temperature 10 °F -  
Max Temperature 21 °F 14 °F 46 °F (1979)
Min Temperature -2 °F -2 °F -28 °F (1990)
Degree Days  
Heating Degree Days 54    
Moisture  
Dew Point 8 °F    
Average Humidity 89    
Maximum Humidity 100    
Minimum Humidity 72    
Precipitation  
Precipitation 0.43 in - - ()
Sea Level Pressure  
Sea Level Pressure 29.97 in    
Wind  
Wind Speed 7 mph (NNW)    
Max Wind Speed 22 mph    
Max Gust Speed 30 mph    
Visibility 8 miles    
Events Snow    
Averages and records for this station are not official NWS values.
T = Trace of Precipitation, MM = Missing Value Source: NWS Daily Summary

Daily Weather History Graph

Daily Weather History Graph

Search for Another Location

Airport or City:

Trip Planner

Search our weather history database for the weather conditions in past years. The results will help you decide how hot, cold, wet, or windy it might be!

Date:

Astronomy

Dec. 30, 2012 Rise Set
Actual Time 8:25 AM CST 4:43 PM CST
Civil Twilight 7:48 AM CST 5:20 PM CST
Nautical Twilight 7:07 AM CST 6:01 PM CST
Astronomical Twilight 6:29 AM CST 6:39 PM CST
Moon 7:30 PM CST (12/30) 9:22 AM CST (12/30)
Length of Visible Light 9h 32m
Length of Day
8h 18m
Waning Gibbous, 95% of the Moon is Illuminated
Dec 30
Waning Gibbous
Jan 4
Last Quarter
Jan 11
New
Jan 18
First Quarter
Jan 26
Full

Hourly Weather History & Observations

Time (CST) Temp. Windchill Dew Point Humidity Pressure Visibility Wind Dir Wind Speed Gust Speed Precip Events Conditions
12:15 AM 6.8 °F -2.0 °F 1.4 °F 79% 29.96 in - South 4.6 mph - N/A   Clear
12:35 AM 5.0 °F -4.1 °F 1.4 °F 85% 29.96 in - SSE 4.6 mph - N/A   Unknown
12:55 AM -0.4 °F -14.7 °F -2.2 °F 92% 29.96 in - SE 8.1 mph - N/A   Unknown
1:15 AM 1.4 °F -12.5 °F -0.4 °F 92% 29.95 in 10.0 mi SSE 8.1 mph - N/A   Clear
1:35 AM 1.4 °F -9.9 °F -0.4 °F 92% 29.94 in 10.0 mi SSE 5.8 mph - N/A   Partly Cloudy
1:55 AM 1.4 °F -8.3 °F -0.4 °F 92% 29.94 in 10.0 mi SE 4.6 mph - N/A   Scattered Clouds
2:15 AM 1.4 °F -9.9 °F -0.4 °F 92% 29.94 in - SSE 5.8 mph - N/A   Unknown
2:35 AM 3.2 °F -10.3 °F 1.4 °F 92% 29.93 in - SE 8.1 mph - N/A   Unknown
7:35 AM 12.2 °F 1.7 °F 10.4 °F 92% 29.88 in 10.0 mi ESE 6.9 mph - N/A   Overcast
7:55 AM 14.0 °F 5.1 °F 10.4 °F 86% 29.88 in 5.0 mi ESE 5.8 mph - N/A Snow Light Snow
8:15 AM 14.0 °F 8.2 °F 12.2 °F 93% 29.89 in 7.0 mi ESE 3.5 mph - N/A Snow Light Snow
8:35 AM 14.0 °F - 14.0 °F 100% 29.89 in 5.0 mi Calm Calm - N/A Snow Light Snow
8:55 AM 17.6 °F 9.3 °F 15.8 °F 93% 29.89 in 7.0 mi NNE 5.8 mph - N/A Snow Light Snow
9:15 AM 15.8 °F 8.6 °F 15.8 °F 100% 29.88 in 2.5 mi WSW 4.6 mph - N/A Snow Light Snow
9:35 AM 17.6 °F - 17.6 °F 100% 29.89 in 1.8 mi Calm Calm - 0.02 in Snow Light Snow
9:55 AM 17.6 °F - 17.6 °F 100% 29.90 in 3.0 mi Calm Calm - 0.03 in Snow Light Snow
10:15 AM 17.6 °F - 17.6 °F 100% 29.90 in 2.5 mi Calm Calm - N/A Snow Light Snow
10:35 AM 19.4 °F - 19.4 °F 100% 29.90 in 1.5 mi Calm Calm - 0.04 in Snow Light Snow
10:55 AM 19.4 °F 14.3 °F 19.4 °F 100% 29.90 in 1.8 mi NW 3.5 mph - 0.08 in Snow Light Snow
11:15 AM 21.2 °F 14.9 °F 21.2 °F 100% 29.89 in 1.0 mi NW 4.6 mph - 0.07 in Snow Light Snow
11:35 AM 21.2 °F 11.7 °F 21.2 °F 100% 29.89 in 0.8 mi NW 8.1 mph - 0.26 in Snow Light Snow
11:55 AM 21.2 °F 10.1 °F 21.2 °F 100% 29.89 in 2.0 mi NW 10.4 mph - 0.29 in Snow Light Snow
12:15 PM 21.2 °F 10.1 °F 19.4 °F 93% 29.88 in 7.0 mi NNW 10.4 mph - N/A Snow Light Snow
12:35 PM 21.2 °F 7.8 °F 17.6 °F 86% 29.88 in 10.0 mi NNW 15.0 mph 20.7 mph N/A   Mostly Cloudy
12:55 PM 19.4 °F 5.5 °F 15.8 °F 86% 29.88 in 10.0 mi NNW 15.0 mph 20.7 mph N/A   Mostly Cloudy
1:15 PM 17.6 °F 5.0 °F 14.0 °F 86% 29.88 in 10.0 mi NNW 11.5 mph - N/A   Partly Cloudy
1:35 PM 15.8 °F 2.7 °F 14.0 °F 93% 29.88 in 10.0 mi NNW 11.5 mph 16.1 mph N/A Snow Light Snow
1:55 PM 15.8 °F 2.7 °F 14.0 °F 93% 29.88 in 10.0 mi NNW 11.5 mph - N/A   Scattered Clouds
2:15 PM 17.6 °F 6.4 °F 14.0 °F 86% 29.89 in 10.0 mi NNW 9.2 mph - N/A Snow Light Snow
2:35 PM 17.6 °F 6.4 °F 15.8 °F 93% 29.90 in 10.0 mi NNW 9.2 mph - N/A Snow Light Snow
2:55 PM 17.6 °F 6.4 °F 14.0 °F 86% 29.90 in 10.0 mi NNW 9.2 mph - N/A Snow Light Snow
3:15 PM 15.8 °F 5.1 °F 14.0 °F 93% 29.91 in 10.0 mi NNW 8.1 mph - N/A Snow Light Snow
3:35 PM 15.8 °F 6.1 °F 14.0 °F 93% 29.91 in 10.0 mi NNW 6.9 mph - N/A Snow Light Snow
3:55 PM 15.8 °F 6.1 °F 14.0 °F 93% 29.92 in 10.0 mi NNW 6.9 mph - N/A Snow Light Snow
4:15 PM 15.8 °F 6.1 °F 14.0 °F 93% 29.93 in 10.0 mi North 6.9 mph - N/A   Clear
4:35 PM 15.8 °F 7.2 °F 14.0 °F 93% 29.94 in 10.0 mi NNW 5.8 mph - N/A   Mostly Cloudy
4:55 PM 15.8 °F 8.6 °F 14.0 °F 93% 29.95 in 10.0 mi NW 4.6 mph - N/A Snow Light Snow
5:15 PM 14.0 °F 5.1 °F 14.0 °F 100% 29.96 in 10.0 mi NW 5.8 mph - N/A Snow Light Snow
5:35 PM 15.8 °F -1.9 °F 14.0 °F 93% 29.98 in 5.0 mi North 21.9 mph 25.3 mph N/A Snow Light Snow
5:55 PM 10.4 °F -6.6 °F 10.4 °F 100% 30.00 in 7.0 mi North 16.1 mph - 0.03 in Snow Light Snow
6:15 PM 10.4 °F -4.1 °F 8.6 °F 92% 30.01 in 7.0 mi North 11.5 mph - N/A Snow Light Snow
6:35 PM 10.4 °F -4.8 °F 8.6 °F 92% 30.02 in 8.0 mi NNW 12.7 mph 18.4 mph N/A Snow Light Snow
6:55 PM 10.4 °F -5.4 °F 6.8 °F 85% 30.03 in 10.0 mi NNW 13.8 mph - N/A   Overcast
7:15 PM 10.4 °F -7.7 °F 5.0 °F 79% 30.04 in 10.0 mi North 18.4 mph 24.2 mph N/A   Overcast
7:35 PM 10.4 °F -7.2 °F 3.2 °F 73% 30.06 in 10.0 mi NNW 17.3 mph 28.8 mph N/A   Overcast
7:55 PM 6.8 °F -11.3 °F -0.4 °F 72% 30.07 in 10.0 mi NNW 16.1 mph 29.9 mph N/A   Mostly Cloudy
8:15 PM 5.0 °F -12.3 °F -0.4 °F 78% 30.07 in 10.0 mi NNW 13.8 mph - N/A   Scattered Clouds
8:35 PM 5.0 °F -11.6 °F -0.4 °F 78% 30.08 in 10.0 mi NNW 12.7 mph 23.0 mph N/A   Clear
8:55 PM 5.0 °F -10.0 °F -2.2 °F 72% 30.09 in 10.0 mi NW 10.4 mph - N/A   Clear
9:15 PM 1.4 °F -13.5 °F -2.2 °F 85% 30.09 in 10.0 mi NNW 9.2 mph - N/A   Clear
9:35 PM 1.4 °F -12.5 °F -2.2 °F 85% 30.10 in 10.0 mi NNW 8.1 mph - N/A   Scattered Clouds
9:55 PM 1.4 °F -13.5 °F -2.2 °F 85% 30.11 in 10.0 mi NNW 9.2 mph - N/A   Mostly Cloudy
10:15 PM 1.4 °F -13.5 °F -4.0 °F 78% 30.12 in 10.0 mi NW 9.2 mph - N/A   Scattered Clouds
10:35 PM 1.4 °F -14.5 °F -4.0 °F 78% 30.12 in 10.0 mi NNW 10.4 mph - N/A   Partly Cloudy
10:55 PM -0.4 °F -15.7 °F -4.0 °F 85% 30.13 in 10.0 mi NNW 9.2 mph - N/A   Clear
11:15 PM -0.4 °F -14.7 °F -5.8 °F 78% 30.14 in 10.0 mi NNW 8.1 mph - N/A   Partly Cloudy
11:35 PM -0.4 °F -14.7 °F -5.8 °F 78% 30.14 in 10.0 mi NNW 8.1 mph - N/A   Partly Cloudy
11:55 PM -2.2 °F - -7.6 °F 78% 30.15 in 10.0 mi Calm Calm - N/A   Scattered Clouds